TimeEST,TemperatureF,Dew PointF,Humidity,Sea Level PressureIn,VisibilityMPH,Wind Direction,Wind SpeedMPH,Gust SpeedMPH,PrecipitationIn,Events,Conditions,WindDirDegrees,DateUTC
12:53 AM,44.1,41.0,89,30.10,10.0,Calm,Calm,-,N/A,,Clear,0,2012-11-21 05:53:00
1:53 AM,45.0,42.1,90,30.09,10.0,Calm,Calm,-,N/A,,Clear,0,2012-11-21 06:53:00
2:53 AM,43.0,41.0,93,30.10,9.0,Calm,Calm,-,N/A,,Partly Cloudy,0,2012-11-21 07:53:00
3:53 AM,45.0,43.0,93,30.10,9.0,Calm,Calm,-,N/A,,Overcast,0,2012-11-21 08:53:00
4:53 AM,45.0,42.1,90,30.10,10.0,West,3.5,-,N/A,,Overcast,280,2012-11-21 09:53:00
5:53 AM,43.0,41.0,93,30.12,9.0,Calm,Calm,-,N/A,,Clear,0,2012-11-21 10:53:00
6:53 AM,41.0,39.9,96,30.13,8.0,Calm,Calm,-,N/A,,Clear,0,2012-11-21 11:53:00
7:53 AM,42.1,41.0,96,30.15,6.0,Calm,Calm,-,N/A,,Clear,0,2012-11-21 12:53:00
8:53 AM,51.1,45.0,80,30.17,8.0,Calm,Calm,-,N/A,,Clear,0,2012-11-21 13:53:00
9:53 AM,57.0,44.1,62,30.18,9.0,Calm,Calm,-,N/A,,Clear,0,2012-11-21 14:53:00
10:53 AM,63.0,43.0,48,30.17,10.0,North,4.6,-,N/A,,Partly Cloudy,360,2012-11-21 15:53:00
11:53 AM,66.0,42.1,42,30.16,10.0,Calm,Calm,-,N/A,,Clear,0,2012-11-21 16:53:00
12:53 PM,66.9,41.0,39,30.14,10.0,ENE,4.6,-,N/A,,Clear,70,2012-11-21 17:53:00
1:53 PM,66.9,42.1,40,30.12,10.0,Calm,Calm,-,N/A,,Clear,0,2012-11-21 18:53:00
2:53 PM,69.1,42.1,38,30.11,10.0,NNW,6.9,-,N/A,,Partly Cloudy,330,2012-11-21 19:53:00
3:53 PM,66.9,41.0,39,30.11,10.0,Calm,Calm,-,N/A,,Clear,0,2012-11-21 20:53:00
4:53 PM,64.9,43.0,45,30.12,10.0,West,4.6,-,N/A,,Scattered Clouds,280,2012-11-21 21:53:00
5:53 PM,64.0,43.0,46,30.13,10.0,WNW,5.8,-,N/A,,Mostly Cloudy,300,2012-11-21 22:53:00
6:53 PM,60.1,43.0,53,30.15,10.0,WNW,5.8,-,N/A,,Clear,300,2012-11-21 23:53:00
7:53 PM,57.9,43.0,58,30.16,10.0,WNW,3.5,-,N/A,,Clear,300,2012-11-22 00:53:00
8:53 PM,55.0,42.1,62,30.16,10.0,Calm,Calm,-,N/A,,Clear,0,2012-11-22 01:53:00
9:53 PM,50.0,43.0,77,30.16,10.0,Calm,Calm,-,N/A,,Clear,0,2012-11-22 02:53:00
10:53 PM,48.9,43.0,80,30.16,10.0,Calm,Calm,-,N/A,,Clear,0,2012-11-22 03:53:00
11:53 PM,46.0,43.0,89,30.16,9.0,Calm,Calm,-,N/A,,Clear,0,2012-11-22 04:53:00